Regional Weather Roundup
Issued by NWS

Home | Current Version | Previous Version | Text Only | Print | Product List | Glossary Off
Versions: 1 2 3 4 5 6 7 8 9 10 11 12 13 14 15 16 17 18 19 20 21 22 23 24 25 26 27 28 29 30 31 32 33 34 35 36 37 38 39 40 41 42 43 44 45 46 47 48 49 50

000
ASUS43 KOAX 020710
RWRNE

WEATHER ROUNDUP FOR NEBRASKA
NATIONAL WEATHER SERVICE OMAHA NE
200 AM CDT TUE JUN 02 2015

NOTES: SATELLITE DATA IS BEING USED TO AUGMENT CLOUD COVER ABOVE
       12000 FEET.
       "FAIR" INDICATES FEW OR NO CLOUDS BELOW 12,000 FEET WITH NO
       SIGNIFICANT WEATHER AND/OR OBSTRUCTIONS TO VISIBILITY.

  * THESE STATIONS DO NOT REPORT WEATHER SUCH AS RAIN...SNOW OR FOG.

NEZ001>004-019>022-054>056-020800-
NEBRASKA PANHANDLE

CITY           SKY/WX    TMP DP  RH WIND       PRES   REMARKS
SCOTTSBLUFF    MOCLDY    58  55  90 SE10      29.95F
ALLIANCE       CLOUDY    60  55  83 NW7       29.95R
CHADRON        CLOUDY    68  51  54 S20       29.80F
KIMBALL          N/A    N/A N/A N/A MISG        N/A
SIDNEY         CLOUDY    58  54  86 SE13      30.00F
$$

NEZ057>060-069>072-079>082-020800-
SOUTHWEST NEBRASKA

CITY           SKY/WX    TMP DP  RH WIND       PRES   REMARKS
NORTH PLATTE   CLOUDY    63  58  83 SE8       29.95F
IMPERIAL       LGT RAIN  60  57  89 SE17G25   29.99F
LEXINGTON      LGT RAIN  65  61  85 SW7       30.03F
MCCOOK         TSTM      62  59  90 CALM      30.08R FOG
OGALLALA       MOCLDY    61  57  87 SE9       29.97F
$$

NEZ005>010-023>029-035>040-094-020800-
NORTH CENTRAL NEBRASKA

CITY           SKY/WX    TMP DP  RH WIND       PRES   REMARKS
VALENTINE      CLOUDY    66  60  81 CALM      29.88R
AINSWORTH      CLOUDY    65  60  85 S20G25    29.89F
BROKEN BOW     CLOUDY    65  59  81 S14       29.98F
O`NEILL        CLOUDY    65  59  79 S13G18    29.96F
ORD            CLOUDY    63  57  81 S9        29.99S
THEDFORD       LGT RAIN  67  56  68 SW21G36   29.90F
$$

NEZ041-046>049-061>064-073>077-083>087-020800-
SOUTH CENTRAL NEBRASKA

CITY           SKY/WX    TMP DP  RH WIND       PRES   REMARKS
GRAND ISLAND   CLOUDY    63  55  75 S16G26    30.01F
AURORA         CLOUDY    63  56  79 SE12      30.01F
HASTINGS       CLOUDY    62  55  77 S13       30.01F
HEBRON         MOCLDY    60  56  84 SE8       30.03F
HOLDREGE       CLOUDY    62  57  85 S9G17     30.01S
KEARNEY *      CLOUDY    63  55  77 S12       30.01R
YORK           CLOUDY    63  55  77 S14       30.04S
$$

NEZ011>018-030>034-042>045-020800-
NORTHEAST NEBRASKA

CITY           SKY/WX    TMP DP  RH WIND       PRES   REMARKS
NORFOLK        CLOUDY    62  54  74 S13       30.00F
ALBION         CLOUDY    64  54  68 S13       30.00F
BLAIR          PTCLDY    60  53  77 S10       30.06S
COLUMBUS *     CLOUDY    61  52  72 S12G18    30.04S
FREMONT        MOCLDY    61  54  76 SE9G17    30.05S
TEKAMAH        PTCLDY    60  52  74 SE9       30.04F
WAYNE          CLOUDY    60  53  76 S12       30.02S
$$

NEZ050>053-065>068-078-088>093-020800-
SOUTHEAST NEBRASKA

CITY           SKY/WX    TMP DP  RH WIND       PRES   REMARKS
LINCOLN        MOCLDY    59  54  83 S12       30.06R
OMAHA EPPLEY   PTCLDY    61  55  81 S15       30.07F
BEATRICE       MOCLDY    58  54  88 SE9       30.06S
FALLS CITY     CLEAR     57  52  83 SE10      30.09F
NEBRASKA CITY  CLEAR     56  54  94 S7        30.09S
PLATTSMOUTH    PTCLDY    58  53  84 SE8       30.08S
$$

NEZ044-045-051>053-067-020800-
OMAHA AREA

CITY           SKY/WX    TMP DP  RH WIND       PRES   REMARKS
OMAHA EPPLEY   PTCLDY    61  55  81 S15       30.07F
BLAIR          PTCLDY    60  53  77 S10       30.06S
FREMONT        MOCLDY    61  54  76 SE9G17    30.05S
MILLARD        PTCLDY    60  55  81 SE8       30.06S
OFFUTT AFB     PTCLDY    58  55  87 SE9       30.07S
PLATTSMOUTH    PTCLDY    58  53  84 SE8       30.08S
WAHOO          FAIR      60  55  82 S14       30.05S
$$


USA.gov is the U.S. government's official web portal to all federal, state and local government web resources and services.